Find Starlink 6030

NORAD ID: 56107 Int'l Des: 2023-046 Owner: SPXS Country: US Constellation: starlink operational
LEOCIRCULAR

リアルタイム位置

3D地球を読み込み中...

Starlink 6030について

説明を読み込み中...

次回通過

Passes for default location (London). Set your location on the main map for personalized predictions.

高度履歴

Loading altitude history...

軌道要素

1 56107U 23046Q 26121.75635411 .00000489 00000-0 27294-4 0 9997
2 56107 43.0019 222.1676 0001169 267.4107 92.6611 15.27578532170141
Epoch: May 1, 2026 • Age: 22 hours

現在のステータス

高度 482.2 km
速度 7.63 km/s
衛星直下点 10.84°N, 125.3°E
打ち上げ日 Mar 29, 2023
運用期間 3 years
タイプ internet

技術仕様

分類 Payload
質量 305.00 kg
乾燥質量 290.00 kg
総質量 305.00 kg
長さ 0.20 m
直径 2.80 m
スパン 9.00 m
形状 Box + pan
製造者 SPXS
バスタイプ Starlink
フェーズステータス In Orbit
所有者/国 SPXS/US

Most Searched